GW2838 Weather Reports


time (UTC)temp
C
wind
direction
speed
KPH
gust
KPH
rain 1hr
cm
rain 24hr
cm
rain mn
cm
humidity
%
barometer
mb
20260507130023 12 346 3.2 9.7 0.00 0.71 0.13 70 1035.5
20260507125020 12 317 6.4 11.3 0.00 0.71 0.13 70 1035.6
20260507124035 12 329 6.4 11.3 0.00 0.71 0.13 72 1035.6
20260507123031 12 328 8.0 12.9 0.00 0.74 0.13 74 1035.4
20260507122027 12 331 6.4 12.9 0.00 0.74 0.13 77 1035.5
20260507121022 12 320 4.8 9.7 0.00 0.74 0.13 78 1035.4
20260507120018 12 322 8.0 11.3 0.00 0.74 0.13 79 1035.2
20260507115054 12 327 4.8 11.3 0.00 0.74 0.13 82 1035.2
20260507114030 12 320 4.8 11.3 0.00 0.74 0.13 84 1035.1
20260507113026 12 328 4.8 9.7 0.00 0.74 0.13 85 1035.0
20260507112022 12 313 4.8 6.4 0.00 0.74 0.13 85 1035.0
20260507111019 12 326 1.6 4.8 0.00 0.74 0.13 85 1034.9
20260507110034 12 315 1.6 4.8 0.00 0.74 0.13 85 1035.0
20260507105030 12 4 1.6 4.8 0.00 0.74 0.13 85 1034.8
20260507104026 12 357 0.0 1.6 0.00 0.74 0.13 85 1034.6
20260507103021 12 347 3.2 3.2 0.00 0.74 0.13 85 1034.5
20260507102017 12 335 1.6 6.4 0.00 0.74 0.13 85 1034.6
20260507101034 12 307 1.6 4.8 0.00 0.74 0.13 86 1034.4
20260507100029 12 324 3.2 6.4 0.00 0.74 0.13 86 1034.5
20260507095025 12 348 3.2 6.4 0.00 0.74 0.13 86 1034.5
20260507094022 12 8 0.0 3.2 0.00 0.74 0.13 86 1034.3
20260507093017 12 3 3.2 4.8 0.00 0.74 0.13 86 1034.2
20260507092032 12 6 3.2 4.8 0.00 0.74 0.13 86 1034.3
20260507091028 12 341 1.6 3.2 0.00 0.74 0.13 85 1034.5
20260507090023 12 356 1.6 4.8 0.00 0.74 0.13 85 1034.4
20260507085019 12 355 1.6 3.2 0.00 0.74 0.13 85 1034.1
20260507084035 12 16 3.2 6.4 0.00 0.74 0.13 85 1034.2
20260507083031 12 8 3.2 9.7 0.00 0.74 0.13 85 1034.1
20260507082027 12 14 3.2 9.7 0.05 0.74 0.13 85 1033.9
20260507081024 13 22 4.8 9.7 0.05 0.74 0.13 85 1033.6
20260507080019 13 360 6.4 14.5 0.05 0.74 0.13 86 1033.4
20260507075015 13 12 4.8 11.3 0.05 0.74 0.13 86 1033.5
20260507074112 13 19 9.7 17.7 0.05 0.74 0.13 87 1033.2
20260507073028 13 26 4.8 11.3 0.03 0.71 0.10 87 1033.2
20260507072044 13 9 1.6 3.2 0.00 0.69 0.08 87 1033.2
20260507071020 13 344 1.6 4.8 0.00 0.69 0.08 87 1033.1
20260507070017 13 344 3.2 9.7 0.00 0.69 0.08 87 1033.2
20260507065032 13 331 4.8 11.3 0.00 0.69 0.08 87 1033.3
20260507064028 13 329 4.8 9.7 0.00 0.69 0.08 87 1033.3
20260507063024 13 333 4.8 11.3 0.00 0.69 0.08 87 1033.1
20260507062020 13 352 4.8 11.3 0.00 0.69 0.08 87 1033.2
20260507061017 14 350 1.6 9.7 0.03 0.69 0.08 86 1033.2
20260507060034 14 337 6.4 14.5 0.05 0.69 0.08 86 1033.1
20260507055029 14 343 8.0 17.7 0.08 0.69 0.08 86 1033.2
20260507054026 14 326 8.0 14.5 0.08 0.69 0.08 85 1033.4
20260507053042 15 352 9.7 22.5 0.08 0.69 0.08 84 1033.1
20260507052018 15 352 4.8 12.9 0.08 0.69 0.08 81 1033.0
20260507051034 15 329 9.7 20.9 0.05 0.66 0.05 79 1033.5
20260507050030 16 305 8.0 16.1 0.00 0.61 0.00 77 1033.6
20260507045027 16 327 9.7 17.7 0.00 0.61 0.00 75 1033.2
20260507044043 17 346 8.0 22.5 0.00 0.61 0.00 73 1033.1
20260507043019 17 319 6.4 11.3 0.00 0.61 0.00 72 1033.4
20260507042035 17 323 3.2 9.7 0.00 0.61 0.00 73 1033.3
20260507041052 17 316 4.8 11.3 0.00 0.61 0.00 72 1033.0
20260507040027 17 315 6.4 16.1 0.00 0.61 0.61 72 1032.8
20260507035023 17 324 6.4 12.9 0.00 0.61 0.61 72 1032.7
20260507034018 18 356 6.4 11.3 0.00 0.61 0.61 73 1032.9
20260507033035 18 332 9.7 22.5 0.00 0.61 0.61 76 1032.9
20260507032031 18 321 8.0 14.5 0.00 0.61 0.61 76 1032.7
20260507031047 18 336 4.8 9.7 0.00 0.61 0.61 75 1032.3
20260507030023 18 329 3.2 6.4 0.00 0.61 0.61 74 1032.3
20260507025021 19 302 4.8 11.3 0.00 0.61 0.61 74 1032.4
20260507024036 19 327 6.4 12.9 0.00 0.61 0.61 75 1032.2
20260507023032 19 333 4.8 11.3 0.00 0.61 0.61 74 1032.3
20260507022028 20 311 6.4 12.9 0.00 0.61 0.61 74 1032.0
20260507021024 20 312 4.8 11.3 0.00 0.61 0.61 74 1032.0
20260507020021 20 343 9.7 20.9 0.00 0.61 0.61 74 1031.6
20260507015018 20 317 9.7 17.7 0.00 0.61 0.61 76 1031.7
20260507014033 20 312 6.4 16.1 0.00 0.61 0.61 77 1031.9
20260507013030 20 210 1.6 3.2 0.00 0.61 0.61 77 1031.9
20260507012026 21 0.0 0.0 0.00 0.61 0.61 77 1031.8
20260507011022 21 218 3.2 6.4 0.00 0.61 0.61 77 1032.0
20260507010019 21 236 3.2 4.8 0.00 0.61 0.61 77 1032.0
20260507005034 21 227 1.6 4.8 0.00 0.61 0.61 76 1031.6
20260507004030 21 210 1.6 4.8 0.00 0.61 0.61 76 1031.6
20260507003026 21 215 0.0 3.2 0.00 0.61 0.61 76 1031.5
20260507002023 21 217 1.6 3.2 0.00 0.61 0.61 76 1031.4
20260507001059 21 234 1.6 3.2 0.00 0.61 0.61 75 1031.5
20260507000015 21 241 1.6 4.8 0.00 0.61 0.61 75 1031.6
20260506235032 21 229 1.6 4.8 0.00 0.61 0.61 75 1031.4
20260506234027 21 219 4.8 11.3 0.00 0.61 0.61 74 1031.2
20260506233043 21 201 1.6 9.7 0.00 0.61 0.61 74 1031.2
20260506232020 21 203 8.0 16.1 0.00 0.61 0.61 74 1031.0
20260506231035 21 179 6.4 12.9 0.00 0.61 0.61 73 1030.7
20260506230051 21 191 6.4 16.1 0.00 0.61 0.61 73 1030.7
20260506225027 21 183 6.4 12.9 0.00 0.61 0.61 73 1031.0
20260506224023 22 196 6.4 17.7 0.00 0.61 0.61 72 1030.8
20260506223039 22 178 6.4 9.7 0.00 0.61 0.61 72 1030.7
20260506222016 22 189 6.4 11.3 0.00 0.61 0.61 71 1030.8
20260506221032 22 215 6.4 9.7 0.00 0.61 0.61 71 1030.8
20260506220028 22 179 6.4 16.1 0.00 0.61 0.61 70 1030.9
20260506215024 22 205 8.0 17.7 0.00 0.61 0.61 70 1030.9
20260506214021 22 221 8.0 17.7 0.00 0.61 0.61 70 1030.8
20260506213017 23 216 11.3 22.5 0.00 0.61 0.61 69 1030.6
20260506212034 23 223 8.0 17.7 0.00 0.61 0.61 69 1030.5
20260506211031 23 216 6.4 20.9 0.00 0.61 0.61 70 1030.5
20260506210026 23 208 9.7 25.7 0.00 0.61 0.61 70 1030.4
20260506205023 23 203 11.3 22.5 0.00 0.61 0.61 70 1030.5
20260506204019 22 204 12.9 25.7 0.00 0.61 0.61 70 1030.1
20260506203015 22 220 8.0 17.7 0.00 0.61 0.61 70 1030.5
20260506202031 22 213 9.7 35.4 0.00 0.61 0.61 70 1030.4
20260506201027 22 216 14.5 29.0 0.00 0.61 0.61 71 1030.5
20260506200024 22 225 12.9 29.0 0.00 0.61 0.61 70 1030.5
20260506195021 22 204 14.5 30.6 0.00 0.61 0.61 70 1030.5
20260506194016 22 204 12.9 27.4 0.00 0.61 0.61 70 1030.4
20260506193033 22 225 14.5 29.0 0.00 0.61 0.61 70 1030.8
20260506192029 22 217 9.7 24.1 0.00 0.61 0.61 70 1030.7
20260506191027 22 214 12.9 29.0 0.00 0.61 0.61 71 1030.8
20260506190022 22 215 9.7 22.5 0.00 0.61 0.61 72 1030.8
20260506185019 22 227 8.0 17.7 0.00 0.61 0.61 72 1030.8
20260506184035 22 210 9.7 27.4 0.00 0.61 0.61 73 1030.9
20260506183031 21 199 12.9 25.7 0.00 0.61 0.61 73 1031.1
20260506182028 21 216 14.5 38.6 0.00 0.61 0.61 74 1031.0
20260506181024 21 197 11.3 24.1 0.00 0.61 0.61 75 1031.3
20260506180021 21 211 12.9 33.8 0.00 0.61 0.61 77 1031.3
20260506175036 20 232 17.7 35.4 0.00 0.61 0.61 77 1031.6
20260506174032 20 219 16.1 33.8 0.00 0.61 0.61 78 1031.6
20260506173028 19 205 11.3 24.1 0.00 0.61 0.61 80 1031.5
20260506172024 19 220 16.1 33.8 0.00 0.61 0.61 80 1031.6
20260506171040 19 226 17.7 38.6 0.00 0.61 0.61 80 1031.8
20260506170017 19 212 14.5 27.4 0.00 0.61 0.61 82 1031.8
20260506165033 19 208 11.3 24.1 0.00 0.61 0.61 83 1031.7
20260506164028 18 225 14.5 33.8 0.00 0.61 0.61 84 1031.9
20260506163026 18 197 17.7 33.8 0.00 0.61 0.61 84 1032.0
20260506162041 18 198 9.7 24.1 0.03 0.61 0.61 85 1031.8
20260506161017 18 194 11.3 24.1 0.08 0.61 0.61 86 1031.9
20260506160034 18 229 6.4 17.7 0.10 0.61 0.61 86 1032.0
20260506155030 17 198 11.3 29.0 0.10 0.61 0.61 87 1032.2
20260506154047 17 202 8.0 27.4 0.10 0.61 0.61 87 1032.4
20260506153022 17 203 9.7 24.1 0.15 0.61 0.61 87 1032.2
20260506152019 17 195 9.7 24.1 0.15 0.58 0.58 87 1032.3
20260506151054 17 196 11.3 22.5 0.18 0.53 0.53 87 1032.9
20260506150030 17 211 8.0 20.9 0.23 0.51 0.51 87 1033.0
20260506145026 17 216 8.0 16.1 0.28 0.51 0.51 87 1032.9
20260506144021 16 190 4.8 12.9 0.33 0.51 0.51 86 1032.9
20260506143018 16 202 9.7 24.1 0.41 0.48 0.48 86 1033.1
20260506142034 17 199 6.4 16.1 0.41 0.43 0.43 85 1032.8
20260506141030 17 201 8.0 16.1 0.33 0.36 0.36 84 1032.9
20260506140027 17 180 8.0 20.9 0.28 0.28 0.28 83 1033.0
20260506135023 17 195 6.4 14.5 0.23 0.23 0.23 82 1033.1
20260506134019 17 207 6.4 12.9 0.15 0.15 0.15 81 1033.3
20260506133016 18 204 6.4 20.9 0.08 0.08 0.08 80 1033.4
20260506132032 18 200 8.0 17.7 0.03 0.03 0.03 79 1033.3
20260506131028 18 194 8.0 16.1 0.03 0.03 0.03 79 1033.0